Date,TemperatureHighF,TemperatureAvgF,TemperatureLowF,DewpointHighF,DewpointAvgF,DewpointLowF,HumidityHigh,HumidityAvg,HumidityLow,PressureMaxIn,PressureMinIn,WindSpeedMaxMPH,WindSpeedAvgMPH,GustSpeedMaxMPH,PrecipitationSumIn
2013-6-1,72.0,56.5,49.0,27.0,23.4,21.0,34,28,19,30.25,30.06,7,5,10,0.00
2013-6-2,86.0,67.7,42.0,31.0,24.4,19.0,51,24,10,30.06,29.76,17,6,25,0.00
2013-6-3,80.0,65.4,52.0,38.0,32.4,23.0,43,30,18,30.06,29.86,13,8,19,0.00
2013-6-4,81.0,64.9,43.0,33.0,27.9,23.0,49,26,14,30.11,29.96,13,5,23,0.00
2013-6-5,81.0,65.9,45.0,38.0,31.7,27.0,51,30,15,30.17,30.02,9,4,12,0.00
2013-6-6,83.0,67.1,49.0,41.0,31.9,25.0,44,29,13,30.16,30.02,7,4,14,0.00
2013-6-7,87.0,68.2,46.0,39.0,31.7,27.0,56,28,14,30.13,29.98,12,4,25,0.00
2013-6-8,86.0,71.7,53.0,44.0,35.7,28.0,47,28,18,30.12,30.03,10,6,17,0.00
2013-6-9,93.0,73.9,52.0,41.0,33.5,27.0,45,25,11,30.14,29.90,11,5,22,0.00
2013-6-10,86.0,74.2,61.0,36.0,26.3,21.0,37,18,10,29.99,29.82,25,13,42,0.00
2013-6-11,79.0,71.5,57.0,38.0,31.5,10.0,33,23,12,30.07,29.90,14,6,22,0.00
2013-6-12,84.0,71.2,48.0,39.0,29.0,21.0,60,26,10,30.09,29.92,17,9,38,0.00
2013-6-13,82.0,70.7,54.0,33.0,23.0,2.0,42,18,8,30.09,29.90,24,12,36,0.00
2013-6-14,72.0,59.6,49.0,35.0,24.1,4.0,45,27,11,30.21,30.02,14,8,22,0.00
2013-6-15,78.0,55.4,40.0,33.0,17.8,6.0,36,25,9,30.11,29.98,12,3,17,0.00
2013-6-16,82.0,60.8,35.0,26.0,12.5,3.0,33,17,8,30.11,30.01,11,5,21,0.00
2013-6-17,85.0,66.8,47.0,33.0,19.5,8.0,33,17,10,30.14,29.95,10,4,16,0.00
2013-6-18,86.0,71.0,49.0,24.0,16.8,8.0,27,14,6,29.99,29.72,18,9,27,0.00
2013-6-19,72.0,62.9,52.0,24.0,14.9,8.0,25,16,8,29.99,29.72,15,9,28,0.00
2013-6-20,67.0,52.4,43.0,31.0,23.7,11.0,50,34,18,30.06,29.91,11,7,17,0.00
2013-6-22,77.0,68.1,52.0,33.0,27.9,18.0,44,23,14,30.10,29.94,11,5,16,0.00
2013-6-23,83.0,67.0,44.0,33.0,25.1,21.0,40,23,12,30.02,29.72,16,8,27,0.00
2013-6-24,72.0,66.1,56.0,40.0,31.2,23.0,50,28,20,29.94,29.77,18,11,27,0.00
2013-6-25,60.0,55.3,52.0,43.0,39.7,37.0,62,56,50,30.06,29.94,5,3,6,0.00
2013-6-26,90.0,76.6,55.0,45.0,40.0,35.0,56,29,15,30.17,30.05,14,8,22,0.00
2013-6-27,94.0,76.6,57.0,46.0,40.1,35.0,47,29,16,30.30,30.19,8,4,13,0.00
2013-6-28,94.0,79.5,64.0,47.0,40.0,34.0,40,26,16,30.32,30.17,29,7,44,0.00
2013-6-29,96.0,72.3,54.0,47.0,37.0,28.0,54,32,9,30.24,30.05,8,4,16,0.00
2013-6-30,88.0,77.7,71.0,39.0,37.5,36.0,31,24,16,30.14,30.08,5,3,7,0.00